• In Hungary
  • List of Countries
  • For 7 days
  • Water Temperature
  • Satellite Maps
  • Weather Map
  • News
  • Weather Widgets
  • user-avatar
    Login

    Hourly Weather Chakhansur

    Today, 23 February, Friday

    Time Temperature Precipitation Wind Pressure Humidity
    00:00 +24°C° 0 mm 1 mps 715 mmHg 16%
    01:00 +23°C° 0 mm 1 mps 715 mmHg 17%
    02:00 +23°C° 0 mm 2 mps 714 mmHg 19%
    03:00 +22°C° 0 mm 3 mps 714 mmHg 20%
    04:00 +22°C° 0 mm 3 mps 714 mmHg 22%
    05:00 +21°C° 0.1 mm 4 mps 714 mmHg 26%
    06:00 +20°C° 0.1 mm 5 mps 714 mmHg 29%
    07:00 +20°C° 0.1 mm 6 mps 714 mmHg 33%
    08:00 +19°C° 0.2 mm 6 mps 714 mmHg 39%
    09:00 +18°C° 0.2 mm 7 mps 714 mmHg 44%
    10:00 +17°C° 0 mm 6 mps 715 mmHg 45%
    11:00 +20°C° 0 mm 5 mps 715 mmHg 41%
    12:00 +21°C° 0 mm 4 mps 714 mmHg 36%
    13:00 +22°C° 0 mm 3 mps 714 mmHg 31%
    14:00 +22°C° 0 mm 3 mps 714 mmHg 30%
    15:00 +24°C° 0 mm 3 mps 714 mmHg 30%
    16:00 +24°C° 0 mm 2 mps 714 mmHg 29%
    17:00 +22°C° 0.2 mm 3 mps 714 mmHg 32%
    18:00 +21°C° 0.2 mm 3 mps 714 mmHg 34%
    19:00 +21°C° 0.2 mm 3 mps 715 mmHg 37%
    20:00 +20°C° 0.2 mm 3 mps 715 mmHg 40%
    21:00 +19°C° 0.2 mm 4 mps 715 mmHg 43%
    22:00 +18°C° 0.2 mm 4 mps 715 mmHg 46%
    23:00 +18°C° 0 mm 3 mps 716 mmHg 48%

    Tomorrow, 24 February, Saturday

    Time Temperature Precipitation Wind Pressure Humidity
    00:00 +17°C° 0 mm 3 mps 716 mmHg 50%
    01:00 +17°C° 0 mm 3 mps 716 mmHg 52%
    02:00 +16°C° 0 mm 3 mps 716 mmHg 53%
    03:00 +16°C° 0 mm 3 mps 716 mmHg 54%
    04:00 +16°C° 0 mm 3 mps 716 mmHg 56%
    05:00 +14°C° 0 mm 3 mps 717 mmHg 56%
    06:00 +14°C° 0 mm 3 mps 717 mmHg 56%
    07:00 +14°C° 0 mm 3 mps 718 mmHg 56%
    08:00 +17°C° 0 mm 3 mps 718 mmHg 51%
    09:00 +19°C° 0 mm 3 mps 718 mmHg 45%
    10:00 +20°C° 0 mm 2 mps 719 mmHg 39%
    11:00 +21°C° 0 mm 2 mps 719 mmHg 36%
    12:00 +24°C° 0 mm 1 mps 718 mmHg 33%
    13:00 +25°C° 0 mm 1 mps 718 mmHg 29%
    14:00 +25°C° 0 mm 1 mps 717 mmHg 28%
    15:00 +26°C° 0 mm 2 mps 717 mmHg 26%
    16:00 +27°C° 0 mm 2 mps 717 mmHg 24%
    17:00 +26°C° 0 mm 2 mps 717 mmHg 25%
    18:00 +25°C° 0 mm 2 mps 717 mmHg 26%
    19:00 +24°C° 0 mm 3 mps 717 mmHg 27%
    20:00 +24°C° 0 mm 3 mps 717 mmHg 27%
    21:00 +23°C° 0 mm 4 mps 717 mmHg 28%
    22:00 +22°C° 0 mm 4 mps 717 mmHg 28%
    23:00 +22°C° 0 mm 5 mps 717 mmHg 29%

    Day after tomorrow, 25 February, Sunday

    Time Temperature Precipitation Wind Pressure Humidity
    00:00 +22°C° 0 mm 5 mps 717 mmHg 30%
    01:00 +21°C° 0 mm 6 mps 717 mmHg 31%
    02:00 +21°C° 0 mm 6 mps 716 mmHg 31%
    03:00 +21°C° 0 mm 7 mps 716 mmHg 31%
    04:00 +20°C° 0 mm 7 mps 716 mmHg 32%
    05:00 +20°C° 0.1 mm 6 mps 716 mmHg 32%
    06:00 +20°C° 0.1 mm 5 mps 717 mmHg 33%
    07:00 +20°C° 0.1 mm 4 mps 717 mmHg 34%
    08:00 +20°C° 0.7 mm 5 mps 717 mmHg 39%
    09:00 +20°C° 0.7 mm 6 mps 717 mmHg 45%
    10:00 +18°C° 0.7 mm 7 mps 718 mmHg 51%
    11:00 +21°C° 0 mm 7 mps 717 mmHg 46%
    12:00 +23°C° 0 mm 8 mps 717 mmHg 42%
    13:00 +26°C° 0 mm 9 mps 717 mmHg 37%
    14:00 +27°C° 0 mm 8 mps 717 mmHg 34%
    15:00 +28°C° 0 mm 8 mps 716 mmHg 30%
    16:00 +29°C° 0 mm 8 mps 716 mmHg 26%
    17:00 +28°C° 0.1 mm 7 mps 716 mmHg 28%
    18:00 +27°C° 0.1 mm 7 mps 716 mmHg 30%
    19:00 +26°C° 0.1 mm 7 mps 716 mmHg 32%
    20:00 +24°C° 0.2 mm 6 mps 716 mmHg 38%
    21:00 +23°C° 0.2 mm 6 mps 716 mmHg 43%
    22:00 +22°C° 0.2 mm 5 mps 716 mmHg 48%
    23:00 +22°C° 0.2 mm 5 mps 716 mmHg 51%

    26 February, Monday

    Time Temperature Precipitation Wind Pressure Humidity
    00:00 +21°C° 0.2 mm 5 mps 716 mmHg 55%
    01:00 +21°C° 0.2 mm 5 mps 716 mmHg 58%
    02:00 +21°C° 0 mm 6 mps 715 mmHg 54%
    03:00 +22°C° 0 mm 7 mps 715 mmHg 50%
    04:00 +22°C° 0 mm 8 mps 715 mmHg 46%
    05:00 +22°C° 0.1 mm 8 mps 715 mmHg 48%
    06:00 +21°C° 0.1 mm 7 mps 715 mmHg 50%
    07:00 +21°C° 0.1 mm 7 mps 716 mmHg 52%
    08:00 +22°C° 0 mm 7 mps 716 mmHg 47%
    09:00 +23°C° 0 mm 7 mps 717 mmHg 43%
    10:00 +24°C° 0 mm 7 mps 717 mmHg 39%
    11:00 +26°C° 0 mm 7 mps 717 mmHg 36%
    12:00 +27°C° 0 mm 6 mps 716 mmHg 33%
    13:00 +27°C° 0 mm 5 mps 716 mmHg 30%
    14:00 +27°C° 0 mm 5 mps 716 mmHg 29%
    15:00 +27°C° 0 mm 4 mps 715 mmHg 28%
    16:00 +28°C° 0 mm 3 mps 715 mmHg 28%
    17:00 +27°C° 0 mm 3 mps 715 mmHg 30%
    18:00 +26°C° 0 mm 4 mps 715 mmHg 32%
    19:00 +25°C° 0 mm 4 mps 716 mmHg 34%
    20:00 +25°C° 0 mm 4 mps 716 mmHg 34%
    21:00 +23°C° 0 mm 4 mps 716 mmHg 35%
    22:00 +23°C° 0 mm 5 mps 717 mmHg 36%
    23:00 +22°C° 0 mm 5 mps 717 mmHg 36%

    27 February, Tuesday

    Time Temperature Precipitation Wind Pressure Humidity
    00:00 +22°C° 0 mm 5 mps 717 mmHg 37%
    01:00 +21°C° 0 mm 4 mps 717 mmHg 37%
    02:00 +21°C° 0 mm 4 mps 717 mmHg 39%
    03:00 +20°C° 0 mm 4 mps 717 mmHg 42%
    04:00 +19°C° 0 mm 4 mps 717 mmHg 45%
    05:00 +19°C° 0 mm 4 mps 717 mmHg 46%
    06:00 +19°C° 0 mm 4 mps 717 mmHg 48%
    07:00 +19°C° 0 mm 4 mps 718 mmHg 50%
    08:00 +20°C° 0 mm 3 mps 718 mmHg 46%
    09:00 +22°C° 0 mm 3 mps 719 mmHg 42%
    10:00 +24°C° 0 mm 3 mps 719 mmHg 38%
    11:00 +25°C° 0 mm 3 mps 719 mmHg 35%
    12:00 +26°C° 0 mm 2 mps 718 mmHg 32%
    13:00 +27°C° 0 mm 2 mps 718 mmHg 30%
    14:00 +27°C° 0 mm 2 mps 717 mmHg 28%
    15:00 +28°C° 0 mm 2 mps 717 mmHg 27%
    16:00 +28°C° 0 mm 1 mps 716 mmHg 25%
    17:00 +27°C° 0 mm 1 mps 717 mmHg 27%
    18:00 +26°C° 0 mm 1 mps 717 mmHg 29%
    19:00 +25°C° 0 mm 1 mps 717 mmHg 31%
    20:00 +25°C° 0 mm 1 mps 717 mmHg 31%
    21:00 +24°C° 0 mm 1 mps 717 mmHg 32%
    22:00 +24°C° 0 mm 2 mps 717 mmHg 33%
    23:00 +24°C° 0 mm 2 mps 717 mmHg 33%

    28 February, Wednesday

    Time Temperature Precipitation Wind Pressure Humidity
    00:00 +23°C° 0 mm 2 mps 717 mmHg 34%
    01:00 +23°C° 0 mm 2 mps 716 mmHg 35%
    02:00 +21°C° 0 mm 2 mps 716 mmHg 36%
    03:00 +21°C° 0 mm 3 mps 716 mmHg 37%
    04:00 +20°C° 0 mm 3 mps 716 mmHg 38%
    05:00 +20°C° 0 mm 3 mps 716 mmHg 39%
    06:00 +20°C° 0 mm 3 mps 716 mmHg 40%
    07:00 +20°C° 0 mm 3 mps 717 mmHg 41%
    08:00 +22°C° 0 mm 3 mps 717 mmHg 36%
    09:00 +24°C° 0 mm 3 mps 718 mmHg 31%
    10:00 +26°C° 0 mm 3 mps 718 mmHg 26%
    11:00 +27°C° 0 mm 3 mps 717 mmHg 24%
    12:00 +28°C° 0 mm 2 mps 717 mmHg 21%
    13:00 +29°C° 0 mm 2 mps 716 mmHg 19%
    14:00 +29°C° 0 mm 2 mps 716 mmHg 18%
    15:00 +30°C° 0 mm 2 mps 716 mmHg 17%
    16:00 +30°C° 0 mm 2 mps 715 mmHg 17%
    17:00 +29°C° 0 mm 2 mps 716 mmHg 18%
    18:00 +28°C° 0 mm 1 mps 716 mmHg 20%
    19:00 +26°C° 0 mm 1 mps 716 mmHg 22%
    20:00 +26°C° 0 mm 1 mps 716 mmHg 23%
    21:00 +25°C° 0 mm 1 mps 716 mmHg 24%
    22:00 +25°C° 0 mm 1 mps 716 mmHg 25%
    23:00 +24°C° 0 mm 1 mps 716 mmHg 26%
    Show more